Flag for Germany Weather past 2 weeks in Kirchheim unter Teck, Baden-Württemberg, Germany

Now
55 °F

Partly sunny.


Feels Like: 55 °F
Forecast: 42 / 70 °F
Wind: 2 mph from North

Location: Stuttgart-Echterdingen


UV Index: 0 (Low)

Visibility: N/A


Pressure: 29.68 "Hg

Humidity: 82%

Dew point: 50 °F

Location of Kirchheim unter TeckLocation

Historic Weather in Kirchheim unter Teck

°F

Kirchheim unter Teck temperature yesterday

Maximum temperature yesterday: 64 °F (at 4:20 PM)
Minimum temperature yesterday: 45 °F (at 3:20 AM)
Average temperature yesterday: 54 °F

Past Weeks' High & Low Weather Summary

 TemperatureHumidityPressure
High70 °F (Apr 7, 2:20 PM)100% (Apr 19, 3:50 AM)30.36 "Hg (Apr 19, 3:50 AM)
Low32 °F (Apr 16, 6:20 AM)21% (Apr 17, 5:20 PM)29.62 "Hg (Apr 21, 10:50 AM)
Average50 °F63%30.04 "Hg
* Reported Apr 6 5:20 PM — Apr 21 5:20 PM, Kirchheim unter Teck, Weather by CustomWeather, © 2014

Note: Actual official high and low records may vary slightly from our data, if they occured in-between our weather recording intervals... More about our weather records

Advertising

Historic Weather Conditions — Data for Previous 24 hours

 ConditionsComfort  
Time TempWeatherWind HumidityBarometerVisibility
5:20 PM
Apr 21
55 °FSprinkles. Partly sunny.2 mph72%29.65 "HgN/A
4:50 PM54 °FSprinkles. Partly sunny.2 mph88%29.65 "HgN/A
4:20 PM52 °FSprinkles. Partly sunny.6 mph88%29.65 "HgN/A
3:50 PM54 °FRain showers. Partly sunny.7 mph82%29.65 "HgN/A
3:20 PM57 °FSprinkles. Partly sunny.6 mph67%29.62 "HgN/A
2:50 PM59 °FSprinkles. Broken clouds.5 mph59%29.62 "HgN/A
2:20 PM61 °FPartly sunny.6 mph59%29.62 "HgN/A
1:50 PM61 °FBroken clouds.3 mph59%29.62 "HgN/A
1:20 PM59 °FPartly sunny.2 mph59%29.62 "HgN/A
12:50 PM59 °FBroken clouds.6 mph59%29.62 "HgN/A
12:20 PM59 °FBroken clouds.7 mph59%29.62 "HgN/A
11:50 AM59 °FScattered clouds.5 mph63%29.62 "HgN/A
11:20 AM59 °FScattered clouds.3 mph55%29.62 "HgN/A
10:50 AM57 °FScattered clouds.3 mph67%29.62 "HgN/A
10:20 AM54 °FScattered clouds.2 mph67%29.65 "HgN/A
9:50 AM54 °FSunny.1 mph67%29.65 "Hg10 mi
9:20 AM50 °FSunny.2 mph76%29.65 "Hg10 mi
8:50 AM48 °FSunny.2 mph76%29.65 "Hg10 mi
8:20 AM48 °FSunny.3 mph76%29.65 "Hg10 mi
7:50 AM46 °FSunny.1 mph82%29.65 "Hg10 mi
7:20 AM43 °FClear.1 mph87%29.65 "Hg10 mi
6:50 AM43 °FClear.2 mph87%29.65 "Hg10 mi
6:20 AM43 °FClear.2 mph81%29.65 "Hg10 mi
5:50 AM43 °FClear.2 mph87%29.65 "Hg10 mi
5:20 AM43 °FClear.2 mph81%29.65 "Hg10 mi
4:50 AM41 °FClear.1 mph87%29.65 "Hg10 mi
4:20 AM45 °FClear.3 mph81%29.65 "Hg10 mi
3:50 AM45 °FClear.1 mph81%29.65 "Hg10 mi
3:20 AM46 °FClear.5 mph76%29.65 "Hg10 mi
2:50 AM48 °FClear.1 mph71%29.65 "Hg10 mi
2:20 AM46 °FClear.1 mph76%29.68 "Hg10 mi
1:50 AM50 °FClear.3 mph67%29.68 "Hg10 mi
1:20 AM46 °FClear.1 mph76%29.68 "Hg10 mi
12:50 AM48 °FClear.1 mph71%29.68 "Hg10 mi
12:20 AM50 °FClear.1 mph67%29.68 "Hg10 mi
11:50 PM
Apr 20
50 °FClear.2 mph67%29.68 "Hg10 mi
11:20 PM50 °FClear.2 mph71%29.68 "Hg10 mi
10:50 PM50 °FClear.5 mph67%29.68 "Hg10 mi
10:20 PM52 °FClear.7 mph67%29.68 "Hg10 mi
9:50 PM52 °FClear.7 mph67%29.68 "Hg10 mi
9:20 PM54 °FSunny.5 mph63%29.68 "Hg10 mi
8:50 PM54 °FSunny.6 mph67%29.68 "Hg10 mi
8:20 PM55 °FSunny.3 mph59%29.68 "Hg10 mi
7:50 PM59 °FSunny.3 mph51%29.65 "Hg10 mi
7:20 PM61 °FSunny.8 mph45%29.65 "Hg10 mi
6:50 PM63 °FSunny.8 mph42%29.65 "Hg10 mi
6:20 PM63 °FSunny.8 mph42%29.65 "Hg10 mi
Weather by CustomWeather, © 2014

See weather overview